Back to catalog

DELTA 1 DEB

AliveSSO
NORAD 42638·DEBRIS·🇺🇸 United States

Launched Jun 12, 1975 from Vandenberg Space Force Base

Loading…

Next Passes (next 24 hours)

TLE

AgingSource: Space-Track

Epoch: Sep 3, 2026, 12:50 UTC

1 42638U 75052LX  26246.53518126  .00001008  00000-0  12685-2 0  9996
2 42638  99.7378   1.4033 0043903 202.8244 157.0948 13.66182672589480

Track DELTA 1 DEB in real time with AllMySat

Download on the App Store